"Pseudo-MPEC" for C1RUW62

Created 2020 Jan 17 11:07:04 UT using Find_Orb

Click here for an explanation of pseudo-MPECs

 
 Astrometry: 
     C1RUW62  C2020 01 14.34029 09 34 29.75 +55 23 09.9    ~1E8q 21.2 GVNEOCPG96
     C1RUW62  C2020 01 14.34551 09 34 28.82 +55 23 07.5    ~1E8q 21.0 GVNEOCPG96
     C1RUW62  C2020 01 14.35074 09 34 27.92 +55 23 06.4    ~1E8q 20.9 GVNEOCPG96
     C1RUW62  C2020 01 14.35595 09 34 27.09 +55 23 05.3    ~1E8q 20.7 GVNEOCPG96
     C1RUW62  C2020 01 14.38035309 34 23.23 +55 22 57.3    ~1E9q 20.5 GVNEOCPH01
     C1RUW62  C2020 01 14.38522709 34 22.48 +55 22 55.7    ~1E9q 21.1 GVNEOCPH01
     C1RUW62 ^C2020 01 14OU,IAstrometryWQq;VC/]ng2:[n'5KCQH,)u?gJtsM+KE![h0\Q695
     C1RUW62  C2020 01 14.39396409 34 21.09 +55 22 52.8    ~1E9q 20.8 GVNEOCPH01
     C1RUW62 ^C2020 01 14P!kredacted;fIEG_KjjsPtHIaMCZ(_E)@g9^Jj5%\UN[g,FXZvR695
     C1RUW62  C2020 01 14.40196809 34 19.81 +55 22 50.6    ~1E9q 20.9 GVNEOCPH01
     C1RUW62 ^C2020 01 14(ym/BM0J3/.SQG8!8'ZN\bc8Pp^b*4:f3-v/4`3GIAUiG![N5cdx695
     C1RUW62  C2020 01 14.43597 09 34 14.50 +55 22 39.3    ~1EB7 20.7 GVNEOCPI52
     C1RUW62  C2020 01 14.43847 09 34 14.13 +55 22 38.6    ~1EB7 20.4 GVNEOCPI52
     C1RUW62  C2020 01 14.44347 09 34 13.30 +55 22 37.0    ~1EB7 20.4 GVNEOCPI52
     C1RUW62  C2020 01 15LNv:6(*m;ki$%)7'R3\SV).71DuBQJ#E:)MDPB5sFn7uU$WbZ:Jq246
     C1RUW62 FC2020 01 15KHKDRQnUPb8#,iyubyje7?t;Q6Pk`G=cM=-%I4yLWKoVXVjwGdK;246
     C1RUW62 FC2020 01 15;l,U:#AuLFD(4wF`TKVeLhAp?BZD^u_Q(:E+YfZ+f$gV3:d_JO18246
     C1RUW62 FC2020 01 15J'1lUQ7:\sU'YhG9s3:3NMM82xhwj8YV_u162L,5-?#TXPgPjT$=246
     C1RUW62 VC2020 01 15[=*3+[Xw:4\iyL%Rb:_[=99GZj7hn/Jem7pNoHC]^2]1hbc*W#et246
     C1RUW62  C2020 01 15%vQI3?qvi]C'-rPUo4n[qY$Yv.6yNe-;GV(f'%VdH7Ltg[C!O%L.246
     C1RUW62 KC2020 01 15),+kv*?;VG\_4D(@5T;j^X?=*Nj3lAqe6LlGMN,;l$9ODN]_+MxcZ84
     C1RUW62 KC2020 01 15GoGuplbb33M#_?J3H0(n4BCYp[r!bJ/@f^6XFREZ%syM`G]i;L19Z84
     C1RUW62 KC2020 01 16+[NW76\UFu*l-+DReIU8H\yIsB?E-2*h`b%vx5v0'lf6J+9YC;veZ84
     C1RUW62 KC2020 01 16i^4Kp?nV[M-Yb)3MdYEPoo[b)YXxUxgt\ySuGc0upi7TVdr5c#^Y587
     C1RUW62 KC2020 01 168FbqY:'W(!9^TFY0CwZfhhB-;Wp;)0;k\N`c+hyLrE_t/(KDn:2j587
     C1RUW62 KC2020 01 16!MGqE!01Fl`,UENMDTEjmtSOEww90gn7hf7^AGpAm0NUVO1ND$Hw587
     C1RUW62 pC2020 01 16THu+;_s0vaPgFKhpl[Z@75w@ibo3@qeN?`Z5ESyunOcn+lgxgXhyL01
     C1RUW62 IC2020 01 16WZnEe0O_J/tIMxdV;Y0GwhPCF;EOumtP3^%rbhF1^s0H)%[9L3o:L01
     C1RUW62 KC2020 01 16c9;[.`0*.+ZAC9m,[9q?f[Aoa#b3jW(SpCh%]xcE]wf'6Y3qL^jlL01
     C1RUW62 KC2020 01 16@e;'B#n2[v?+clicks-d1,MViJwJ:V71]vUOAEw=HkP]BoioWSc[L01
     C1RUW62 pC2020 01 167,+41FDH1'DA1`V7YX)/KY_t68!Sheresl9YJYJsD,qeq2'MIa_RL01
     C1RUW62 KC2020 01 17pUW):Rs--LZy@mYjL]=qi56`Ggp%'#O\43Q@,^forM3rSf9C8w;cJ04
     C1RUW62 KC2020 01 17fP'QrHGwO$299cY!a3sAfexplanation9[c,2$oR.IY_A(ar1eyCJ04
     C1RUW62 KC2020 01 17Xl`8l;SYitE(/c4uA^NPaa5)CP!UTRt!9fG.?'QnZWiHS1`';Hh*J04

Station data:
(246) Klet Observatory-KLENOT  (N48.863293 E14.288100)  Czech Republic.
   1.06-m KLENOT telescope.
(587) Sormano  (N45.882949 E9.229180)  Italy.  Observers F. Manca, A. Testa.
   Measurer F. Manca. 0.5-m + CCD.
(695) Kitt Peak  (N31.958398 W111.594670)  US/Arizona.
(G96) Mt. Lemmon Survey  (N32.442754 W110.788720)  US/Arizona.  Observers T.
   A. Pruyne, B. M. Africano, E. J. Christensen, G. A. Farneth, D. C. Fuls,
   A. R. Gibbs, A. D. Grauer, H. Gröller, J. A. Johnson, R. A. Kowalski, S.
   M. Larson, G. J. Leonard, D. Rankin, R. L. Seaman, F. C. Shelly. 1.5-m
   reflector + 10K CCD.
(H01) Magdalena Ridge Observatory, Socorro  (N33.984833 W107.189333)  US/New
   Mexico.  Observers W. H. Ryan, E. V. Ryan. Measurer W. H. Ryan. 2.4-m
   f/8.9 reflector + CCD.
(I52) Steward Observatory, Mt. Lemmon Station  (N32.442547 W110.788920)
   US/Arizona.  Observers T. A. Pruyne, B. M. Africano, E. J. Christensen, G.
   A. Farneth, D. C. Fuls, A. R. Gibbs, A. D. Grauer, H. Gröller, J. A.
   Johnson, R. A. Kowalski, S. M. Larson, G. J. Leonard, D. Rankin, R. L.
   Seaman, F. C. Shelly. 1.0-m reflector + CCD.
(J04) ESA Optical Ground Station, Tenerife  (N28.300924 W16.511830)  Canary
   Islands (Spain).  Observer D. Abreu. Measurers M. Micheli, D. Koschny, E.
   Schwab, M. Busch, A. Knöfel. 1.0-m f/4.4 reflector + CCD.
(L01) Višnjan Observatory, Tičan  (N45.290900 E13.749300)  Croatia.
   Observers K. Korlević, E. Pettarin. Measurer E. Pettarin. 1.0-m f/2.9
   reflector + CCD.
(Z84) Calar Alto-Schmidt  (N37.224049 W2.548210)  Spain.

Orbital elements:  C1RUW62
   Perihelion 2019 Aug 31.100150 +/- 2.87 TT =  2:24:12 (JD 2458726.600150)
Epoch 2020 Jan 17.0 TT = JDT 2458865.5   Earth MOID: 0.6629   AutoNEOCP
M  33.55864319 +/- 0.54             (J2000 ecliptic)
n   0.24160316 +/- 0.00392          Peri.   60.85371 +/- 1.8
a   2.55309890 +/- 0.0275           Node   342.85489 +/- 1.2
e   0.4006409 +/- 0.0118            Incl.   27.55625 +/- 0.9
P   4.08                   H 18.7   G  0.15   U  9.0  
q 1.53022294 +/- 0.033    Q 3.57597485 +/- 0.0503
From 34 observations 2020 Jan. 14-17; mean residual 0".51
Residuals in arcseconds: 
200114 G96  1.2+  .24+    200114 I52  .13+  .40-    200116 587  .17-  .36+    
200114 G96  .33+  .59-    200114 I52  .22-  .37-    200116 587  .69+  .57-    
200114 G96  .32-  .12-    200115 246  1.6-  .80+    200116 L01  .40-  .27+    
200114 G96  .39-  .36+    200115 246  .61-  .77+    200116 L01  .32-  .20+    
200114 H01  .03-  .03+    200115 246  .04-  1.5+    200116 L01  .60-  .27-    
200114 H01  .13+  .04-    200115 246  .25+  .25+    200116 L01  .15-  .01-    
200114 695  .25-  .44+    200115 246  1.1+  .84-    200116 L01  .43+  .16+    
200114 H01  .03+  .19-    200115 246  .41+  1.5-    200117 J04  .31+  .01+    
200114 695  .22-  .48+    200115 Z84  .37+  .17-    200117 J04  .11-  .07+    
200114 H01  .12-  .14+    200115 Z84  .14-  .21-    200117 J04  .08-  .02+    
200114 695  .18-  .52+    200116 Z84  .20+  .40-    
200114 I52  .08-  .52-    200116 587  .11+  .02-    

Ephemerides (geocentric):
Date (UTC) HH   RA              Dec         delta   r     elong  mag " sig PA
---- -- -- --  -------------   -----------  ------ ------ -----  --- ---- ---
2020 01 17 11  09 26 26.725   +55 04 01.24  1.0478 1.9188 141.6 21.2 .371   0
2020 01 17 12  09 26 20.199   +55 03 43.52  1.0479 1.9190 141.7 21.2 .396 179
2020 01 17 13  09 26 13.672   +55 03 25.73  1.0479 1.9192 141.7 21.2 .422 177
2020 01 17 14  09 26 07.144   +55 03 07.88  1.0480 1.9194 141.7 21.2 .449 176
2020 01 17 15  09 26 00.614   +55 02 49.97  1.0481 1.9196 141.7 21.2 .476 175
2020 01 17 16  09 25 54.083   +55 02 31.99  1.0481 1.9198 141.7 21.2 .504 174
2020 01 17 17  09 25 47.551   +55 02 13.95  1.0482 1.9199 141.8 21.2 .533 173
2020 01 17 18  09 25 41.017   +55 01 55.84  1.0483 1.9201 141.8 21.2 .563 172
2020 01 17 19  09 25 34.482   +55 01 37.67  1.0484 1.9203 141.8 21.2 .593 171
2020 01 17 20  09 25 27.946   +55 01 19.43  1.0484 1.9205 141.8 21.2 .624 170
2020 01 17 21  09 25 21.408   +55 01 01.13  1.0485 1.9207 141.8 21.2 .656 170
2020 01 17 22  09 25 14.869   +55 00 42.76  1.0486 1.9209 141.9 21.2 .688 169
2020 01 17 23  09 25 08.329   +55 00 24.33  1.0486 1.9211 141.9 21.2 .721 168
2020 01 18 00  09 25 01.787   +55 00 05.83  1.0487 1.9213 141.9 21.2 .755 168
2020 01 18 01  09 24 55.245   +54 59 47.27  1.0488 1.9214 141.9 21.2 .789 167
2020 01 18 02  09 24 48.701   +54 59 28.64  1.0489 1.9216 141.9 21.2 .824 167
2020 01 18 03  09 24 42.156   +54 59 09.95  1.0489 1.9218 142.0 21.2 .860 166
2020 01 18 04  09 24 35.610   +54 58 51.19  1.0490 1.9220 142.0 21.2 .897 166
2020 01 18 05  09 24 29.063   +54 58 32.37  1.0491 1.9222 142.0 21.2 .934 165
2020 01 18 06  09 24 22.515   +54 58 13.48  1.0492 1.9224 142.0 21.2 .972 165
2020 01 18 07  09 24 15.966   +54 57 54.53  1.0492 1.9226 142.0 21.2 1.01 164
2020 01 18 08  09 24 09.415   +54 57 35.51  1.0493 1.9228 142.1 21.2 1.05 164
2020 01 18 09  09 24 02.864   +54 57 16.43  1.0494 1.9230 142.1 21.2 1.09 163
2020 01 18 10  09 23 56.312   +54 56 57.28  1.0495 1.9231 142.1 21.2 1.13 163
2020 01 18 11  09 23 49.759   +54 56 38.07  1.0495 1.9233 142.1 21.2 1.17 163
2020 01 18 12  09 23 43.204   +54 56 18.79  1.0496 1.9235 142.1 21.2 1.21 162
2020 01 18 13  09 23 36.649   +54 55 59.44  1.0497 1.9237 142.2 21.2 1.26 162
2020 01 18 14  09 23 30.093   +54 55 40.04  1.0498 1.9239 142.2 21.2 1.30 162
2020 01 18 15  09 23 23.537   +54 55 20.56  1.0498 1.9241 142.2 21.2 1.34 161
2020 01 18 16  09 23 16.979   +54 55 01.02  1.0499 1.9243 142.2 21.2 1.39 161
2020 01 18 17  09 23 10.420   +54 54 41.42  1.0500 1.9245 142.2 21.2 1.43 161
2020 01 18 18  09 23 03.861   +54 54 21.75  1.0501 1.9246 142.3 21.2 1.48 160
2020 01 18 19  09 22 57.301   +54 54 02.01  1.0502 1.9248 142.3 21.2 1.53 160
2020 01 18 20  09 22 50.740   +54 53 42.21  1.0502 1.9250 142.3 21.2 1.57 160
2020 01 18 21  09 22 44.178   +54 53 22.35  1.0503 1.9252 142.3 21.2 1.62 160
2020 01 18 22  09 22 37.616   +54 53 02.41  1.0504 1.9254 142.3 21.2 1.67 159
2020 01 18 23  09 22 31.053   +54 52 42.42  1.0505 1.9256 142.3 21.2 1.72 159
2020 01 19 00  09 22 24.489   +54 52 22.35  1.0506 1.9258 142.4 21.2 1.77 159
2020 01 19 01  09 22 17.925   +54 52 02.23  1.0506 1.9260 142.4 21.2 1.82 159
2020 01 19 02  09 22 11.360   +54 51 42.03  1.0507 1.9261 142.4 21.2 1.87 158
2020 01 19 03  09 22 04.794   +54 51 21.78  1.0508 1.9263 142.4 21.2 1.92 158
2020 01 19 04  09 21 58.228   +54 51 01.45  1.0509 1.9265 142.4 21.2 1.98 158
2020 01 19 05  09 21 51.662   +54 50 41.06  1.0510 1.9267 142.5 21.2 2.03 158
2020 01 19 06  09 21 45.094   +54 50 20.61  1.0511 1.9269 142.5 21.2 2.08 158
2020 01 19 07  09 21 38.526   +54 50 00.08  1.0511 1.9271 142.5 21.2 2.14 157
2020 01 19 08  09 21 31.958   +54 49 39.50  1.0512 1.9273 142.5 21.2 2.19 157
2020 01 19 09  09 21 25.389   +54 49 18.85  1.0513 1.9275 142.5 21.2 2.25 157
2020 01 19 10  09 21 18.820   +54 48 58.13  1.0514 1.9277 142.6 21.2 2.31 157